Retour au catalogue

GORIZONT 28

ActifCommunicationsGEO
NORAD 22880·PAYLOAD·🇷🇺 Russia

Lancé Oct 28, 1993 depuis Baikonur Cosmodrome

Loading…

TLE

FraisSource: Space-Track

Époque: Sep 14, 2026, 12:07 UTC

1 22880U 93069A   26257.50545858 -.00000208  00000-0  00000-0 0  9990
2 22880  14.0802 347.3807 0031505 177.5111 176.1311  0.99659810120017

Suivez GORIZONT 28 en temps réel avec AllMySat

Download on the App Store